DW9528 Weather Reports


time (UTC)temp
C
wind
direction
speed
KPH
gust
KPH
rain 1hr
cm
rain 24hr
cm
rain mn
cm
humidity
%
barometer
mb
20260506134526 12 144 0.0 0.0 0.00 0.00 0.00 92 1020.3
20260506133030 12 144 0.0 0.0 0.00 0.00 0.00 92 1020.4
20260506131527 12 144 0.0 0.0 0.00 0.00 0.00 92 1020.2
20260506130016 12 144 0.0 0.0 0.00 0.00 0.00 92 1020.1
20260506124515 12 144 0.0 0.0 0.00 0.00 0.00 91 1020.0
20260506123016 12 144 0.0 0.0 0.00 0.00 0.00 91 1020.0
20260506121520 12 144 0.0 0.0 0.00 0.00 0.00 91 1019.9
20260506120026 12 144 0.0 0.0 0.00 0.00 0.00 91 1019.8
20260506114519 12 144 0.0 0.0 0.00 0.00 0.00 91 1019.7
20260506113021 12 144 0.0 0.0 0.00 0.00 0.00 91 1019.6
20260506111519 12 144 0.0 0.0 0.00 0.00 0.00 91 1019.5
20260506110023 12 144 0.0 0.0 0.00 0.00 0.00 90 1019.4
20260506104527 12 144 0.0 0.0 0.00 0.00 0.00 90 1019.5
20260506103025 12 144 0.0 0.0 0.00 0.00 0.00 90 1019.2
20260506101524 12 144 0.0 0.0 0.00 0.00 0.00 90 1019.1
20260506100023 12 144 0.0 0.0 0.00 0.00 0.00 90 1019.0
20260506094528 12 144 0.0 0.0 0.00 0.00 0.00 90 1019.0
20260506093033 12 144 0.0 0.0 0.00 0.03 0.00 90 1019.1
20260506091527 12 144 0.0 0.0 0.00 0.03 0.00 90 1019.2
20260506090012 12 144 0.0 0.0 0.00 0.05 0.00 89 1019.2
20260506084525 12 144 0.0 0.0 0.00 0.13 0.00 89 1019.2
20260506083005 12 144 0.0 0.0 0.00 0.18 0.00 89 1019.3
20260506081512 12 144 0.0 0.0 0.00 0.18 0.00 89 1019.2
20260506073012 12 144 0.0 0.0 0.00 0.18 0.00 89 1018.9
20260506071512 12 144 0.0 1.6 0.00 0.18 0.00 89 1018.7
20260506061525 12 144 0.0 0.0 0.00 0.48 0.20 89 1018.3
20260506044536 13 144 0.0 0.0 0.00 0.51 0.20 87 1017.7
20260506043025 13 144 0.0 0.0 0.00 0.51 0.20 87 1017.4
20260506041538 13 144 0.0 1.6 0.00 0.51 0.20 86 1017.3
20260506040032 13 144 0.0 0.0 0.00 0.51 0.20 85 1017.1
20260506034531 13 144 0.0 1.6 0.00 0.51 0.20 84 1016.7
20260506033028 14 144 0.0 4.8 0.00 0.51 0.20 83 1016.3
20260506031529 14 155 0.0 3.2 0.00 0.53 0.20 81 1016.1
20260506030028 15 151 0.0 4.8 0.00 0.53 0.20 79 1016.0
20260506024528 15 152 0.0 3.2 0.00 0.53 0.20 78 1015.9
20260506023016 15 152 0.0 3.2 0.00 0.56 0.20 76 1015.8
20260506021511 16 204 0.0 0.0 0.00 0.61 0.20 75 1015.8
20260506020010 16 204 0.0 0.0 0.00 0.71 0.20 75 1015.5
20260506014514 17 204 0.0 0.0 0.00 0.76 0.20 73 1015.4
20260506013014 17 187 0.0 0.0 0.00 0.79 0.20 72 1015.4
20260506011535 18 190 0.0 3.2 0.00 0.81 0.20 69 1015.2
20260506010016 18 194 0.0 4.8 0.00 0.86 0.20 69 1015.2
20260506004532 19 59 0.0 3.2 0.00 0.89 0.20 67 1015.3
20260506003019 20 173 0.0 3.2 0.00 0.89 0.20 69 1015.1
20260506001520 19 190 0.0 3.2 0.00 0.94 0.20 69 1015.0
20260506000021 18 182 0.0 4.8 0.00 0.97 0.20 70 1014.9
20260505234522 18 162 0.0 4.8 0.00 0.99 0.20 73 1014.9
20260505233031 17 273 0.0 6.4 0.00 0.99 0.20 73 1014.9
20260505231529 18 186 0.0 3.2 0.00 1.04 0.20 72 1015.0
20260505230026 18 221 0.0 3.2 0.00 1.07 0.20 72 1014.9
20260505224526 19 222 0.0 4.8 0.00 1.09 0.20 71 1014.9
20260505223025 19 116 0.0 1.6 0.00 1.19 0.20 71 1014.9
20260505221528 20 116 0.0 3.2 0.00 1.22 0.20 69 1015.0
20260505220043 20 81 0.0 0.0 0.00 1.24 0.20 69 1015.1
20260505214531 19 81 0.0 0.0 0.00 1.24 0.20 72 1015.1
20260505213029 18 81 0.0 0.0 0.00 1.24 0.20 74 1015.3
20260505211537 18 155 0.0 0.0 0.00 1.24 0.20 74 1015.5
20260505210028 17 155 0.0 3.2 0.00 1.24 0.20 75 1015.7
20260505204528 17 154 0.0 3.2 0.00 1.24 0.20 74 1015.7
20260505203010 18 60 0.0 0.0 0.00 1.24 0.20 73 1015.7
20260505201505 18 60 0.0 0.0 0.00 1.24 0.20 73 1015.8
20260505200008 18 60 0.0 0.0 0.00 1.24 0.20 72 1015.8
20260505194516 18 109 0.0 3.2 0.00 1.24 0.20 73 1015.7
20260505193009 18 107 0.0 3.2 0.00 1.24 0.20 73 1015.8
20260505191510 17 91 0.0 3.2 0.00 1.24 0.20 75 1015.9
20260505190011 17 37 0.0 4.8 0.00 1.24 0.20 72 1015.8
20260505184510 17 155 0.0 3.2 0.00 1.24 0.20 76 1015.9
20260505183016 17 155 0.0 3.2 0.00 1.24 0.20 78 1015.8
20260505181514 16 155 0.0 0.0 0.00 1.24 0.20 76 1015.8
20260505180011 16 155 0.0 3.2 0.00 1.24 0.20 78 1015.7
20260505174513 16 155 0.0 0.0 0.00 1.24 0.20 79 1015.6
20260505173012 15 155 0.0 0.0 0.00 1.24 0.20 83 1015.5
20260505171514 15 155 0.0 0.0 0.00 1.24 0.20 84 1015.5
20260505170011 14 155 0.0 0.0 0.00 1.24 0.20 87 1015.6
20260505164515 13 155 0.0 0.0 0.00 1.24 0.20 87 1015.6
20260505163009 13 155 0.0 0.0 0.00 1.24 0.20 87 1015.5
20260505161506 13 155 0.0 0.0 0.00 1.24 0.20 91 1015.4
20260505153012 12 155 0.0 0.0 0.00 1.24 0.20 96 1015.2
20260505151511 12 155 0.0 0.0 0.00 1.24 0.20 96 1015.1